Tracking 32941 objects as of 15-Jan-2026
HD Live streaming from Space Station
objects crossing your sky now

DMSP 5D-2 F13 DEB

Track DMSP 5D-2 F13 DEB now!
10-day predictions


NORAD ID: 40517
Int'l Code: 1995-015DD
Perigee: 714.7 km
Apogee: 742.3 km
Inclination: 98.6 °
Period: 99.2 minutes
Semi major axis: 7099 km
RCS: Unknown
Launch date: March 24, 1995
Source: United States (US)
Launch site: AIR FORCE WESTERN TEST RANGE (AFWTR)

Note: This is SATELLITE DEBRIS
Your satellite tracking list
Your tracking list is empty




NASA's NSSDC Master Catalog

Two Line Element Set (TLE):
1 40517U 95015DD  26013.91197135  .00004405  00000-0  11150-2 0  9998
2 40517  98.5960  63.3174 0019402 235.1622 124.7748 14.51318500563776
Source of the keplerian elements: AFSPC